Location: Dürabuch
(48.2640°N, 11.2185°E)
Time: 22:43:10
(UTC+00:00)

ASTEX 1 - Pass Details

Date: 23 May 2024
Orbit: 715 x 740 km, 92.7° (Epoch: 14 June)

Event Time Altitude Azimuth Distance (km) Brightness Sun altitude
Rises 02:27:40 0° 160° (SSE) 3,150 6.4 -8.4°
Reaches altitude 10° 02:29:59 10° 157° (SSE) 2,228 5.7 -8.1°
Maximum altitude 02:34:48 58° 79° (E) 854 4.1 -7.5°
Drops below altitude 10° 02:39:38 10° 2° (N) 2,229 6.6 -6.9°
Sets 02:41:57 0° 358° (N) 3,150 7.3 -6.7°
